Effective Sunday, March 17, 2024, the National Weather Service National Data Buoy Center will discontinue its Dial-A-Buoy Interactive Voice Response system. For more information, see Service Change Notice 24-06 (PDF).

Station 46028 (LLNR 275) - CAPE SAN MARTIN - 55NM West NW of Morro Bay, CA Image indicating link to RSS feed of recent meteorological observations for station 46028


Conditions at 46028 as of
(7:30 am PST)
1530 GMT on 02/24/2024:
     

Click on the graph icon in the table below to see a time series plot of the last five days of that observation.

5-day plot - Wind Direction Wind Direction (WDIR): NW ( 310 deg true )
5-day plot - Wind Speed Wind Speed (WSPD): 1.9 kts
5-day plot - Wind Gust Wind Gust (GST): 3.9 kts
5-day plot - Atmospheric Pressure Atmospheric Pressure (PRES):29.99 in
5-day plot - Air Temperature Air Temperature (ATMP): 56.8 °F
5-day plot - Water Temperature Water Temperature (WTMP): 57.0 °F
5-day plot - Dew Point Dew Point (DEWP): 55.2 °F
5-day plot - Wind Speed at 10 Meters Wind Speed at 10 meters (WSPD10M): 1.9 kts
5-day plot - Wind Speed at 20 Meters Wind Speed at 20 meters (WSPD20M): 1.9 kts
5-day plot -  Wind Speed, Wind Gust and Atmospheric Pressure Combined plot of Wind Speed, Gust, and Air Pressure
Supplemental Measurements
Highest 1-minute Wind Speed
Time (PST)5-day plot - 1-Minute Wind Speed WSPD 5-day plot - 1-Minute Wind Direction WDIR
7:29 am 1.9 kts-
Previous observations
TIME
(PST)
5-day plot - Wind Direction
WDIR
 
5-day plot - Wind Speed
WSPD
kts
5-day plot - Wind Gust
GST
kts
5-day plot - Wave Height
WVHT
ft
5-day plot - Dominant Wave Period
DPD
sec
5-day plot - Average Wave Period
APD
sec
5-day plot - Mean Wave Direction
MWD
 
5-day plot - Atmospheric Pressure
PRES
in
5-day plot - Pressure Tendency
PTDY
in
5-day plot - Air Temperature
ATMP
°F
5-day plot - Water Temperature
WTMP
°F
5-day plot - Dew Point
DEWP
°F
5-day plot - Salinity
SAL
psu
5-day plot - Visibility
VIS
nmi
5-day plot - Tide (above MLLW)
TIDE
ft
2024-02-24 07:20 amWNW 1.9 3.9 7.9 1410.9WNW29.99- 56.8 57.0 55.0---
2024-02-24 07:10 amWNW 3.9 5.8 7.9-10.9WNW29.98- 56.8 57.0 55.0---
2024-02-24 07:00 amWNW 3.9 5.8----29.98+0.01 56.7 57.0 54.9---
2024-02-24 06:50 am NW 3.9 5.8 6.6 1410.4WNW29.98- 56.7 57.0 54.9---
2024-02-24 06:40 am NW 3.9 5.8 6.6-10.4WNW29.98- 56.8 57.0 55.0---
2024-02-24 06:30 am NW 3.9 3.9----29.98- 56.8 57.0 54.9---
2024-02-24 06:20 amWNW 3.9 5.8 6.9 1310.4WNW29.98- 56.8 57.0 54.9---
2024-02-24 06:10 amWNW 3.9 5.8 6.9-10.4WNW29.98- 56.8 57.0 54.7---
2024-02-24 06:00 am W 3.9 5.8----29.98+0.00 57.0 57.0 54.7---
2024-02-24 05:50 am W 3.9 5.8 7.9 1310.8WNW29.98- 57.2 57.0 54.7---
2024-02-24 05:40 am W 3.9 5.8----29.98- 57.2 57.0 54.5---
2024-02-24 05:30 amWSW 3.9 5.8----29.98- 57.4 57.0 54.1---
2024-02-24 05:20 amWSW 3.9 5.8 7.9 1411.0WNW29.98- 57.4 57.0 54.0---
2024-02-24 05:10 amWSW 5.8 5.8----29.98- 57.2 57.0 53.8---
2024-02-24 05:00 amWSW 3.9 5.8----29.97+0.00 57.2 57.0 54.1---
2024-02-24 04:50 am SW 3.9 5.8 9.2 1411.1WNW29.97- 57.4 57.0 54.5---
2024-02-24 04:40 am SW 3.9 5.8----29.97- 57.4 57.0 54.5---
2024-02-24 04:30 am SW 5.8 7.8----29.97- 57.2 57.0 54.5---
2024-02-24 04:20 am SW 5.8 5.8 7.9 1310.5WNW29.97- 57.2 57.0 54.9---
2024-02-24 04:10 am SW 5.8 5.8 7.9-10.5WNW29.97- 57.4 57.0 55.0---
2024-02-24 04:00 am SW 3.9 5.8----29.97-0.01 57.6 57.0 55.0---
2024-02-24 03:50 am SW 5.8 5.8 7.2 1310.6WNW29.97- 57.7 57.0 55.0---
2024-02-24 03:40 amSSW 5.8 7.8----29.97- 57.9 57.0 54.9---
2024-02-24 03:30 amSSW 5.8 7.8----29.98- 57.9 57.0 54.9---
2024-02-24 03:20 amSSW 3.9 5.8 7.9 1410.4WNW29.97- 57.7 57.0 54.7---
2024-02-24 03:10 am S 5.8 7.8 7.9-10.4WNW29.98- 57.9 57.0 54.7---
2024-02-24 03:00 am S 5.8 7.8----29.98-0.02 58.3 57.0 54.7---
2024-02-24 02:50 amSSE 5.8 7.8 8.5 1310.8WNW29.98- 58.3 57.0 54.0---
2024-02-24 02:40 am SE 3.9 7.8----29.98- 58.5 57.0 53.6---
2024-02-24 02:30 am SE 3.9 5.8----29.98- 58.8 57.0 53.1---
2024-02-24 02:20 am SE 3.9 7.8 7.9 1410.6WNW29.98- 58.5 57.0 53.1---
2024-02-24 02:10 am SE 3.9 7.8 7.9-10.6WNW29.98- 58.5 57.0 53.4---
2024-02-24 02:00 am SE 3.9 7.8----29.98-0.02 58.5 57.0 53.6---
2024-02-24 01:50 am SE 3.9 7.8 8.5 1410.8WNW29.98- 58.6 57.0 53.4---
2024-02-24 01:40 amSSE 5.8 9.7----29.98- 58.6 57.0 53.2---
2024-02-24 01:30 am SE 5.8 9.7----29.98- 59.0 57.0 52.7---
2024-02-24 01:20 amESE 3.9 7.8 7.9 1410.5WNW29.98- 59.2 57.0 52.2---
2024-02-24 01:10 am E 3.9 5.8 7.9-10.5WNW29.99- 58.5 57.0 52.7---
2024-02-24 01:00 amENE 3.9 5.8----29.98-0.01 57.6 57.0 54.1---
2024-02-24 12:50 amENE 3.9 5.8 8.2 1311.0WNW29.99- 57.4 57.0 54.7---
2024-02-24 12:40 amENE 3.9 5.8----29.99- 57.4 57.0 55.0---
2024-02-24 12:30 amENE 3.9 5.8----29.99- 57.6 57.0 54.9---
2024-02-24 12:20 am E 1.9 5.8 7.2 1410.7WNW29.99- 57.6 57.0 54.7---
2024-02-24 12:10 amESE 1.9 5.8----29.99- 57.6 57.0 54.5---
2024-02-24 12:00 amESE 3.9 5.8----30.00+0.00 57.6 57.0 54.5---
2024-02-23 11:50 pm E 3.9 7.8 9.2 1411.4WNW29.99- 57.6 57.0 54.5---
2024-02-23 11:40 pmESE 1.9 3.9----30.00- 57.4 57.0 54.3---
2024-02-23 11:30 pm SE 1.9 3.9----30.00- 57.4 57.0 54.3---
2024-02-23 11:20 pm SE 1.9 7.8 9.2 1411.3WNW30.00- 57.6 57.0 54.5---
2024-02-23 11:10 pm SE 3.9 5.8 9.2-11.3WNW30.00- 57.6 57.0 54.3---
2024-02-23 11:00 pm SE 1.9 5.8----30.00+0.00 57.6- 54.5---
2024-02-23 10:50 pm SE 1.9 5.8 8.5 1411.3WNW30.00- 57.6 57.2 54.3---
2024-02-23 10:40 pmESE 1.9 5.8----30.00- 57.7 57.2 54.1---
2024-02-23 10:30 pmESE 1.9 5.8----30.00- 57.9 57.2 54.1---
2024-02-23 10:20 pmESE 1.9 5.8 7.9 1310.9WNW30.00- 58.1 57.2 54.0---
2024-02-23 10:10 pm E 1.9 3.9 7.9-10.9WNW30.00- 58.5 57.2 53.4---
2024-02-23 10:00 pm E 3.9 5.8----30.00+0.00 58.3 57.2 53.1---
2024-02-23 09:50 pm E 1.9 5.8 8.9 1411.4WNW30.00- 58.5 57.2 53.2---
2024-02-23 09:40 pmENE 1.9 5.8----30.00- 58.3 57.2 53.1---
2024-02-23 09:30 pmENE 1.9 5.8----30.00- 57.6- 53.4---
2024-02-23 09:20 pm E 1.9 5.8 10.2 1511.9WNW30.00- 57.6 57.4 54.0---
2024-02-23 09:10 pmENE 1.9 5.8----30.00- 57.7 57.4 54.0---
2024-02-23 09:00 pm NE 1.9 5.8----30.00+0.01 57.7 57.4 53.6---
2024-02-23 08:50 pmNNE 1.9 3.9 8.9 1411.3WNW30.00- 57.9 57.4 53.4---
2024-02-23 08:40 pmNNE 3.9 3.9----30.00- 57.9 57.4 53.1---
2024-02-23 08:30 pm N 1.9 3.9----30.00- 57.9 57.4 53.2---
2024-02-23 08:20 pm N 1.9 3.9 9.2 1411.5WNW30.00- 57.9 57.4 53.2---
2024-02-23 08:10 pmNNE 3.9 5.8 9.2-11.5WNW30.00- 58.1 57.6 52.7---
2024-02-23 08:00 pmNNE 3.9 5.8----30.00+0.01 58.5 57.6 52.2---
2024-02-23 07:50 pmNNE 3.9 5.8 10.5 1411.8WNW30.01- 58.6 57.6 51.6---
2024-02-23 07:40 pm N 3.9 5.8----30.01- 58.6 57.6 52.0---
2024-02-23 07:30 pm N 3.9 5.8----30.01- 58.6 57.6 51.8---
2024-02-23 07:20 pm N 3.9 3.9 9.5 1411.7WNW30.00- 58.3 57.7 51.6---
2024-02-23 07:10 pm N 1.9 3.9----30.00- 58.5 57.7 52.3---
2024-02-23 07:00 pmNNW 3.9 5.8----30.00+0.01 58.3 57.6 52.0---
2024-02-23 06:50 pmNNW 3.9 5.8 8.9 1511.3WNW30.00- 58.5 57.6 52.2---
2024-02-23 06:40 pmNNW 3.9 5.8 8.9-11.3WNW29.99- 58.6 57.6 52.0---
2024-02-23 06:30 pmNNW 3.9 7.8----29.99- 58.6 57.6 51.1---
2024-02-23 06:20 pm N 3.9 5.8 8.5 1311.0WNW29.99- 58.3 57.6 52.0---
2024-02-23 06:10 pm N 5.8 7.8----29.99- 58.3 57.4 52.3---
2024-02-23 06:00 pm N 5.8 7.8----29.99-0.01 58.5 57.4 52.3---
2024-02-23 05:50 pm N 5.8 7.8 7.5 1510.9WNW29.98- 58.5 57.6 52.3---
2024-02-23 05:40 pm N 5.8 7.8----29.98- 58.3 57.6 52.5---
2024-02-23 05:30 pm N 5.8 7.8----29.99- 58.3 57.6 53.1---
2024-02-23 05:20 pm N 5.8 7.8 7.5 1411.0WNW29.98- 58.5 57.6 53.4---
2024-02-23 05:10 pm N 5.8 7.8----29.98- 58.5 57.6 53.2---
2024-02-23 05:00 pm N 5.8 7.8----29.99-0.02 58.5 57.6 53.4---
2024-02-23 04:50 pm N 5.8 7.8 7.9 1511.3WNW29.99- 58.5 57.7 53.6---
2024-02-23 04:40 pm N 5.8 7.8 7.9-11.3WNW29.98- 58.6 57.7 53.8---
2024-02-23 04:30 pm N 5.8 7.8----29.99- 58.6 57.7 53.4---
2024-02-23 04:20 pm N 5.8 7.8 7.5 1210.4 W29.99- 58.3 57.6 53.2---
2024-02-23 04:10 pm N 5.8 7.8 7.5-10.4 W29.99- 58.3 57.2 53.8---
2024-02-23 04:00 pm N 5.8 7.8----29.99-0.04 58.1 57.2 53.8---
2024-02-23 03:50 pm N 5.8 7.8 6.9 1510.6WNW29.99- 57.9 57.6 53.8---
2024-02-23 03:40 pm N 5.8 7.8----29.99- 57.9 57.9 54.5---
2024-02-23 03:30 pm N 5.8 7.8----29.99- 57.7 58.1 54.5---
2024-02-23 03:20 pm N 5.8 7.8 7.5 1410.5WNW29.99- 57.9 58.3 54.7---
2024-02-23 03:10 pm N 3.9 5.8 7.5-10.5WNW30.00- 57.9 58.1 54.9---
2024-02-23 03:00 pm N 3.9 5.8----30.00-0.05 57.7 57.9 54.5---
2024-02-23 02:50 pm N 3.9 5.8 6.9 1310.3WNW30.00- 57.6 57.7 54.7---
2024-02-23 02:40 pm N 3.9 5.8----30.00- 57.7 57.9 55.2---
2024-02-23 02:30 pm N 3.9 7.8----30.00- 57.6 58.1 55.0---
2024-02-23 02:20 pm N 3.9 5.8 7.2 1310.7WNW30.01- 57.6 58.1 55.4---
2024-02-23 02:10 pmNNE 3.9 5.8 7.2-10.7WNW30.01- 57.6 57.9 55.4---
2024-02-23 02:00 pm N 3.9 5.8----30.01-0.05 57.7 57.9 55.4---
2024-02-23 01:50 pmNNE 3.9 5.8 6.9 1511.0WNW30.01- 57.7 57.7 55.2---
2024-02-23 01:40 pmNNE 5.8 5.8 6.9-11.0WNW30.01- 57.6 57.7 55.0---
2024-02-23 01:30 pm N 5.8 7.8----30.01- 57.9 57.7 55.6---
2024-02-23 01:20 pm N 5.8 5.8 6.9 1410.7WNW30.02- 57.9 57.7 55.4---
2024-02-23 01:10 pm N 3.9 5.8 6.9-10.7WNW30.02- 57.9 57.4 55.0---
2024-02-23 01:00 pm N 5.8 5.8----30.03-0.04 57.7 57.6 54.7---
2024-02-23 12:50 pm N 5.8 5.8 6.2 1410.2WNW30.03- 57.7 57.7 54.7---
2024-02-23 12:40 pm N 5.8 7.8----30.04- 57.7 57.7 53.8---
2024-02-23 12:30 pm N 5.8 7.8----30.03- 57.6 57.4 54.0---
2024-02-23 12:20 pm N 5.8 7.8 5.9 149.9WNW30.04- 57.6 57.0 54.7---
2024-02-23 12:10 pm N 1.9 3.9----30.05- 57.7 57.2 55.0---
2024-02-23 12:00 pmNNE 1.9 3.9----30.05-0.03 57.6- 54.9---
2024-02-23 11:50 amNNE 3.9 5.8 6.2 1410.5WNW30.05- 57.6 57.0 54.9---
2024-02-23 11:40 amNNE 1.9 3.9----30.06- 57.4 57.0 54.7---
2024-02-23 11:30 am N 3.9 5.8----30.05- 57.2 57.0 54.7---
2024-02-23 11:20 amNNW 3.9 5.8 6.2 1410.4WNW30.05- 57.2 57.0 54.9---
2024-02-23 11:10 amNNW 3.9 3.9 6.2-10.4WNW30.05- 57.2 57.0 54.9---
2024-02-23 11:00 amNNW 3.9 5.8----30.06-0.02 57.2 57.0 55.0---
2024-02-23 10:50 amNNW 1.9 3.9 5.2 1410.1WNW30.06- 56.8 57.0 54.7---
2024-02-23 10:40 am N 1.9 3.9----30.06- 56.7 57.0 54.9---
2024-02-23 10:30 am N 3.9 3.9----30.06- 56.7 57.0 54.9---
2024-02-23 10:20 am N 1.9 3.9 5.6 1410.5WNW30.06- 56.7 57.0 54.9---
2024-02-23 10:10 amNNW 1.9 3.9 5.6-10.5WNW30.06- 56.7 57.0 54.9---
2024-02-23 10:00 amNNW 1.9 3.9----30.07+0.01 56.7 57.0 54.7---
2024-02-23 09:50 amWNW 1.9 3.9 4.9 1410.0WNW30.07- 56.7 57.0 54.7---
2024-02-23 09:40 amNNW 1.9 1.9----30.07- 56.5 57.0 54.5---
2024-02-23 09:30 amNNW 1.9 3.9----30.07- 56.5 57.0 54.5---
2024-02-23 09:20 am NW 3.9 5.8 5.2 1410.3WNW30.07- 56.5 57.0 54.5---
2024-02-23 09:10 am NW 3.9 5.8 5.2-10.3WNW30.08- 56.5 57.0 54.5---
2024-02-23 09:00 am NW 3.9 5.8----30.08+0.02 56.5 57.0 54.5---
2024-02-23 08:50 amWNW 3.9 5.8 5.2 149.8WNW30.08- 56.5 56.8 54.5---
2024-02-23 08:40 amWNW 3.9 5.8----30.08- 56.5 56.8 54.3---
2024-02-23 08:30 amWNW 3.9 5.8----30.08- 56.5 56.8 54.3---
2024-02-23 08:20 amWNW 5.8 7.8 4.9 159.7WNW30.09- 56.5 56.8 54.1---
2024-02-23 08:10 am NW 5.8 7.8 4.9-9.7WNW30.08- 56.3 56.8 53.8---
2024-02-23 08:00 am NW 3.9 5.8----30.08+0.01 56.3 56.8 53.8---
2024-02-23 07:50 amWNW 3.9 5.8 4.9 159.4 W30.07- 56.5 56.8 53.8---
2024-02-23 07:40 amWNW 5.8 7.8----30.08- 56.5 56.8 53.4---
2024-02-23 07:30 am W 5.8 7.8----30.08- 56.3 56.8 53.2---
2024-02-23 07:20 am W 5.8 5.8 4.3 158.3WNW30.08- 56.3 56.8 53.4---
2024-02-23 07:10 am NW 1.9 3.9----30.07- 56.3 56.8 53.2---
2024-02-23 07:00 am N 1.9 3.9----30.06-0.05 56.1 56.8 52.9---
2024-02-23 06:50 amNNE 3.9 5.8 5.2 158.9WNW30.06- 56.1 56.8 53.1---

Detailed Wave Summary
for 46028 as of (7:10 am PST)
1510 GMT on 02/24/2024:

These wave data are displayed in rounded times.

     

Click on the graph icon in the table below to see a time series plot of the last five days of that observation.

5-day plot - Significant Wave Height Significant Wave Height (WVHT): 7.9 ft
5-day plot - Swell Height Swell Height (SwH): 7.9 ft
5-day plot - Swell Period Swell Period (SwP): 13.8 sec
5-day plot - Swell Direction Swell Direction (SwD):WNW
5-day plot - Wind Wave Height Wind Wave Height (WWH): 0.7 ft
5-day plot - Wind Wave Period Wind Wave Period (WWP): 3.7 sec
5-day plot - Wind Wave Direction Wind Wave Direction (WWD):NNW
5-day plot - Wave Steepness Wave Steepness (STEEPNESS): SWELL
5-day plot - Average Wave Period Average Wave Period (APD): 10.9 sec
Previous observations
TIME
(PST)
5-day plot - Wave Height
WVHT
ft
5-day plot - Swell Height
SwH
ft
5-day plot - Swell Period
SwP
sec
5-day plot - Swell Direction
SwD
 
5-day plot - Wind Wave Height
WWH
ft
5-day plot - Wind Wave Period
WWP
sec
5-day plot - Wind Wave Direction
WWD
 
5-day plot - Wave Steepness
STEEPNESS
 
5-day plot - Average Wave Period
APD
sec
2024-02-24 06:40 am 6.6 6.6 13.8WNW 0.7 3.7 NNW SWELL 10.4
2024-02-24 06:10 am 6.9 6.9 12.9WNW 0.7 3.4 N SWELL 10.4
2024-02-24 05:40 am 7.9 7.5 12.9WNW 0.7 4.0 WNW SWELL 10.8
2024-02-24 05:10 am 7.9 7.9 13.8WNW 0.7 3.4 NE SWELL 11.0
2024-02-24 04:40 am 9.2 8.9 13.8WNW 0.7 3.0 NE SWELL 11.1
2024-02-24 04:10 am 7.9 7.9 12.9WNW 0.7 4.0 N SWELL 10.5
2024-02-24 03:40 am 7.2 7.2 12.9WNW 0.7 3.6 N SWELL 10.6
2024-02-24 03:10 am 7.9 7.5 13.8WNW 0.7 3.4 NNE SWELL 10.4
2024-02-24 02:40 am 8.5 8.5 12.9WNW 0.7 4.0 NNW SWELL 10.8
2024-02-24 02:10 am 7.9 7.9 13.8WNW 0.7 3.7 NNW SWELL 10.6
2024-02-24 01:40 am 8.5 8.5 13.8WNW 0.7 3.6 N SWELL 10.8
2024-02-24 01:10 am 7.9 7.9 13.8WNW 0.7 4.0 NW SWELL 10.5
2024-02-24 12:40 am 8.2 7.9 12.9WNW 0.7 3.8 N SWELL 11.0
2024-02-24 12:10 am 7.2 7.2 13.8WNW 0.7 4.0 N SWELL 10.7
2024-02-23 11:40 pm 9.2 8.9 13.8WNW 0.7 4.0 NNW SWELL 11.4
2024-02-23 11:10 pm 9.2 9.2 13.8WNW 0.7 3.7 NNW SWELL 11.3
2024-02-23 10:40 pm 8.5 8.5 13.8WNW 0.7 3.1 NE SWELL 11.3
2024-02-23 10:10 pm 7.9 7.5 12.9WNW 0.7 2.9 ESE SWELL 10.9
2024-02-23 09:40 pm 8.9 8.9 13.8WNW 0.7 3.7 NW SWELL 11.4
2024-02-23 09:10 pm 10.2 10.2 14.8WNW 0.7 4.0 N SWELL 11.9
2024-02-23 08:40 pm 8.9 8.9 13.8WNW 0.7 3.4 ESE SWELL 11.3
2024-02-23 08:10 pm 9.2 9.2 13.8WNW 0.7 4.0 W SWELL 11.5
2024-02-23 07:40 pm 10.5 10.5 13.8WNW 0.7 3.8 WNW SWELL 11.8
2024-02-23 07:10 pm 9.5 9.5 13.8WNW 0.7 3.4 ENE SWELL 11.7
2024-02-23 06:40 pm 8.9 8.9 14.8WNW 0.7 3.8 SSE SWELL 11.3
2024-02-23 06:10 pm 8.5 8.5 12.9WNW 0.7 4.0 S SWELL 11.0
2024-02-23 05:40 pm 7.5 7.5 14.8WNW 0.7 3.8 ESE SWELL 10.9
2024-02-23 05:10 pm 7.5 7.5 13.8WNW 0.7 3.7 SE SWELL 11.0
2024-02-23 04:40 pm 7.9 7.9 14.8WNW 0.7 3.8 ESE SWELL 11.3
2024-02-23 04:10 pm 7.5 7.2 12.1 W 1.0 4.0 SE SWELL 10.4
2024-02-23 03:40 pm 6.9 6.9 14.8WNW 0.7 3.6 ESE SWELL 10.6
2024-02-23 03:10 pm 7.5 7.2 13.8WNW 0.7 3.8 ESE SWELL 10.5
2024-02-23 02:40 pm 6.9 6.9 12.9WNW 0.7 3.7 SE SWELL 10.3
2024-02-23 02:10 pm 7.2 7.2 12.9WNW 0.7 3.8 SE SWELL 10.7
2024-02-23 01:40 pm 6.9 6.9 14.8WNW 0.7 3.4 E SWELL 11.0
2024-02-23 01:10 pm 6.9 6.9 13.8WNW 0.7 3.2 NNW SWELL 10.7
2024-02-23 12:40 pm 6.2 6.2 13.8WNW 0.7 3.2 NE SWELL 10.2
2024-02-23 12:10 pm 5.9 5.9 13.8WNW 1.0 3.4 ENE SWELL 9.9
2024-02-23 11:40 am 6.2 6.2 13.8WNW 1.0 3.8 ENE SWELL 10.5
2024-02-23 11:10 am 6.2 6.2 13.8WNW 1.0 3.7 ENE SWELL 10.4
2024-02-23 10:40 am 5.2 5.2 13.8WNW 0.7 3.6 NNE SWELL 10.1
2024-02-23 10:10 am 5.6 5.6 13.8WNW 0.7 3.4 NW SWELL 10.5
2024-02-23 09:40 am 4.9 4.9 13.8WNW 0.7 3.3 NW SWELL 10.0
2024-02-23 09:10 am 5.2 5.2 13.8WNW 0.7 3.3 NW SWELL 10.3
2024-02-23 08:40 am 5.2 5.2 13.8WNW 0.7 3.3 NW SWELL 9.8
2024-02-23 08:10 am 4.9 4.9 14.8WNW 1.0 3.0 NW SWELL 9.7
2024-02-23 07:40 am 4.9 4.9 14.8 W 1.0 3.3 NW SWELL 9.4
2024-02-23 07:10 am 4.3 4.3 14.8WNW 1.0 3.3 NNW SWELL 8.3

Plot of wave energy versus frequency (and period)